Home   Weather   Newport   Past weeks

Flag for United Kingdom Past Weather in Newport, Wales, United Kingdom — Yesterday and Last 2 Weeks

Now
54 °F

Scattered showers. Scattered clouds.


Feels Like: 50 °F
Forecast: 43 / 60 °F
Wind: 12 mph from Southwest

Location: Bristol / Lulsgate

Current Time: Oct 1, 2016 at 4:32:44 PM

Latest Report: Oct 1, 2016 at 3:50 PM


Visibility: N/A

Pressure: 29.62 "Hg

Humidity: 88%

Dew Point: 50 °F

Location of NewportLocation

Past Weather in Newport — Graph

°F

Newport Temperature Yesterday

Maximum temperature yesterday: 59 °F (at 12:50 PM)
Minimum temperature yesterday: 50 °F (at 1:50 AM)
Average temperature yesterday: 53 °F

High & Low Weather Summary for the Past Weeks

 TemperatureHumidityPressure
High66 °F (Sep 24, 11:20 AM)100% (Sep 19, 8:50 AM)30.30 "Hg (Sep 19, 8:50 AM)
Low48 °F (Sep 23, 6:50 AM)56% (Sep 23, 3:50 PM)29.62 "Hg (Oct 1, 8:20 AM)
Average57 °F85%30.07 "Hg
* Reported Sep 16 3:20 PM — Oct 1 3:20 PM, Newport, Weather by CustomWeather, © 2016

Note: Actual official high and low records may vary slightly from our data, if they occured in-between our weather recording intervals... More about our weather records

Advertising

Newport Weather History for the Previous 24 Hours

Scroll right to see more
 ConditionsComfort  
Time TempWeatherWind HumidityBarometerVisibility
3:20 PM
Sat, Oct 1
54 °FScattered showers. Scattered clouds.10 mph88%29.62 "HgN/A
2:50 PM50 °FScattered showers. Scattered clouds.9 mph94%29.62 "HgN/A
2:20 PM52 °FScattered showers. Scattered clouds.5 mph88%29.62 "HgN/A
1:50 PM54 °FScattered showers. Broken clouds.7 mph82%29.62 "HgN/A
1:20 PM54 °FSprinkles. Broken clouds.8 mph82%29.65 "HgN/A
12:50 PM52 °FSprinkles. Partly sunny.13 mph82%29.65 "HgN/A
12:20 PM55 °FScattered showers. Broken clouds.9 mph72%29.65 "HgN/A
11:50 AM55 °FBroken clouds.13 mph77%29.65 "HgN/A
11:20 AM54 °FPartly sunny.12 mph82%29.65 "HgN/A
10:50 AM52 °FLow clouds.10 mph88%29.65 "HgN/A
10:20 AM52 °FBroken clouds.8 mph88%29.65 "HgN/A
9:50 AM50 °FLight rain. Low clouds.10 mph94%29.65 "HgN/A
9:20 AM50 °FBroken clouds.8 mph94%29.65 "HgN/A
8:50 AM50 °FPassing clouds.10 mph94%29.62 "HgN/A
8:20 AM50 °FPartly sunny.9 mph94%29.62 "HgN/A
7:50 AM50 °FMostly cloudy.9 mph94%29.65 "HgN/A
7:20 AM50 °FLight rain. Partly sunny.8 mph88%29.65 "HgN/A
6:50 AM50 °FLight rain. Passing clouds.10 mph88%29.65 "HgN/A
6:20 AM50 °FLight rain. Partly cloudy.7 mph88%29.65 "HgN/A
5:50 AM50 °FLight rain. Passing clouds.8 mph88%29.68 "HgN/A
5:20 AM50 °FLight rain. Passing clouds.7 mph88%29.68 "HgN/A
4:50 AM50 °FPassing clouds.8 mph88%29.68 "HgN/A
4:20 AM50 °FPassing clouds.8 mph88%29.71 "HgN/A
3:50 AM50 °FPassing clouds.6 mph88%29.71 "HgN/A
3:20 AM50 °FCool.5 mph82%29.71 "HgN/A
2:50 AM48 °FCool.5 mph87%29.74 "HgN/A
2:20 AM50 °FCool.5 mph82%29.74 "HgN/A
1:50 AM50 °FCool.5 mph82%29.74 "HgN/A
1:20 AM50 °FCool.3 mph82%29.77 "HgN/A
12:50 AM50 °FCool.3 mph82%29.77 "HgN/A
12:20 AM50 °FCool.3 mph82%29.77 "HgN/A
11:50 PM
Fri, Sep 30
50 °FCool.5 mph82%29.80 "HgN/A
11:20 PM50 °FCool.3 mph82%29.80 "HgN/A
10:50 PM50 °FCool.5 mph88%29.80 "HgN/A
10:20 PM50 °FCool.5 mph88%29.83 "HgN/A
9:50 PM50 °FCool.3 mph88%29.83 "HgN/A
9:20 PM52 °FCool.3 mph82%29.83 "HgN/A
8:50 PM50 °FCool.5 mph88%29.83 "HgN/A
8:20 PM52 °FPassing clouds.3 mph88%29.83 "HgN/A
7:50 PM54 °FPassing clouds.5 mph77%29.83 "HgN/A
7:20 PM52 °FPassing clouds.6 mph82%29.83 "HgN/A
6:50 PM52 °FCool.7 mph82%29.83 "HgN/A
6:20 PM54 °FScattered clouds.9 mph82%29.83 "HgN/A
5:50 PM55 °FPassing clouds.10 mph77%29.83 "HgN/A
5:20 PM57 °FPassing clouds.12 mph72%29.86 "HgN/A
4:50 PM57 °FScattered clouds.12 mph72%29.86 "HgN/A
4:20 PM59 °FPassing clouds.13 mph68%29.86 "HgN/A
Weather by CustomWeather, © 2016

See weather overviewHow to use our weather pages